EW6890 Weather Reports


Display with metric or nautical units.
time (UTC)temp
F
wind
direction
speed
MPH
gust
MPH
rain 1hr
in
rain 24hr
in
rain mn
in
humidity
%
barometer
mb
20260505124600 53 297 0.0 0.0 0.00 0.00 0.00 88 1017.8
20260505123101 53 297 0.0 0.0 0.00 0.00 0.00 88 1017.7
20260505121558 53 297 0.0 0.0 0.00 0.00 0.00 88 1017.6
20260505120058 53 298 0.0 0.0 0.00 0.00 0.00 87 1017.6
20260505114600 53 297 0.0 0.0 0.00 0.00 0.00 87 1017.6
20260505113056 53 298 0.0 0.0 0.00 0.00 0.00 87 1017.5
20260505111554 53 297 0.0 0.0 0.00 0.00 0.00 87 1017.5
20260505101601 54 297 0.0 0.0 0.00 0.00 0.00 85 1017.0
20260505093024 54 278 0.0 0.0 0.00 0.00 0.00 85 1016.8
20260505091520 55 278 0.0 0.0 0.00 0.00 0.00 84 1016.7
20260505090017 55 278 0.0 0.0 0.00 0.00 0.00 84 1016.6
20260505084516 55 278 0.0 0.0 0.00 0.00 0.00 85 1016.5
20260505083014 55 276 0.0 0.0 0.00 0.00 0.00 86 1016.6
20260505081512 55 277 0.0 0.0 0.00 0.00 0.00 86 1016.4
20260505080010 56 41 0.0 0.0 0.00 0.00 0.00 84 1016.3
20260505074509 56 41 0.0 0.0 0.00 0.00 0.00 84 1016.1
20260505073024 56 41 0.0 0.0 0.00 0.00 0.00 84 1015.9
20260505071504 56 41 0.0 0.0 0.00 0.00 0.00 83 1015.7
20260505070109 56 41 0.0 0.0 0.00 0.00 0.00 83 1015.7
20260505064501 57 41 0.0 0.0 0.00 0.00 0.00 83 1015.5
20260505063117 57 41 0.0 0.0 0.00 0.00 0.00 82 1015.2
20260505061559 58 41 0.0 0.0 0.00 0.00 0.00 82 1015.1
20260505060103 59 41 0.0 0.0 0.00 0.00 0.00 81 1015.0
20260505054559 60 41 0.0 0.0 0.00 0.00 0.00 79 1014.9
20260505053059 60 41 0.0 1.0 0.00 0.00 0.00 79 1014.8
20260505051558 61 25 0.0 0.0 0.00 0.00 0.00 77 1014.6
20260505041555 65 325 0.0 2.0 0.00 0.00 0.00 73 1014.0
20260505040055 65 264 0.0 2.0 0.00 0.00 0.00 73 1013.8
20260505034554 66 256 0.0 1.0 0.00 0.00 0.00 73 1013.5
20260505033054 67 256 0.0 1.0 0.00 0.00 0.00 72 1013.1
20260505031555 68 291 0.0 1.0 0.00 0.00 0.00 70 1013.0
20260505030053 70 69 0.0 1.0 0.00 0.00 0.00 67 1012.9
20260505024554 73 140 0.0 0.0 0.00 0.00 0.00 64 1012.7
20260505023055 75 87 0.0 1.0 0.00 0.00 0.00 61 1012.6
20260505021553 76 127 0.0 2.0 0.00 0.00 0.00 58 1012.6
20260505020053 78 143 0.0 1.0 0.00 0.00 0.00 56 1012.7
20260505014556 78 107 0.0 1.0 0.00 0.00 0.00 56 1012.6
20260505013053 78 79 0.0 2.0 0.00 0.00 0.00 57 1012.7
20260505011552 79 270 0.0 2.0 0.00 0.00 0.00 55 1012.8
20260505010108 79 261 0.0 2.0 0.00 0.00 0.00 55 1012.8
20260505004546 78 131 0.0 1.0 0.00 0.00 0.00 56 1013.0
20260505003046 77 228 0.0 2.0 0.00 0.00 0.00 57 1013.0
20260505001542 77 285 1.0 4.0 0.00 0.00 0.00 57 1013.1
20260505000046 77 301 0.0 4.0 0.00 0.00 0.00 56 1013.1
20260504234538 76 282 0.0 4.0 0.00 0.00 0.00 58 1013.2
20260504233039 76 294 0.0 4.0 0.00 0.00 0.00 58 1013.3
20260504231543 76 137 0.0 3.0 0.00 0.00 0.00 58 1013.4
20260504230041 75 273 0.0 2.0 0.00 0.00 0.00 59 1013.5
20260504224533 74 125 0.0 4.0 0.00 0.00 0.00 59 1013.7
20260504223031 74 328 0.0 2.0 0.00 0.00 0.00 59 1013.9
20260504221539 73 127 0.0 2.0 0.00 0.00 0.00 62 1014.0
20260504220026 71 197 0.0 3.0 0.00 0.00 0.00 62 1014.3
20260504214524 71 89 0.0 7.0 0.00 0.00 0.00 63 1014.4
20260504213030 70 138 0.0 4.0 0.00 0.00 0.00 64 1014.6
20260504211525 69 121 0.0 1.0 0.00 0.00 0.00 65 1014.8
20260504210023 67 288 0.0 4.0 0.00 0.00 0.00 68 1014.9
20260504204528 67 65 0.0 3.0 0.00 0.00 0.00 68 1015.2
20260504203022 65 238 1.0 4.0 0.00 0.00 0.00 70 1015.4
20260504201524 64 290 0.0 3.0 0.00 0.00 0.00 73 1015.4
20260504200021 63 284 0.0 2.0 0.00 0.00 0.00 75 1015.6
20260504194529 62 253 0.0 3.0 0.00 0.00 0.00 77 1015.7
20260504193021 63 277 0.0 2.0 0.00 0.00 0.00 75 1015.7
20260504191530 61 122 0.0 3.0 0.00 0.00 0.00 76 1015.8
20260504190021 61 252 0.0 3.0 0.00 0.00 0.00 78 1015.9
20260504184519 60 270 1.0 3.0 0.00 0.00 0.00 78 1016.0
20260504183017 59 124 0.0 3.0 0.00 0.00 0.00 80 1016.0
20260504181518 59 350 0.0 2.0 0.00 0.00 0.00 81 1016.0
20260504180019 58 287 0.0 1.0 0.00 0.00 0.00 84 1015.9
20260504174514 57 301 0.0 3.0 0.00 0.00 0.00 83 1016.0
20260504173015 57 132 0.0 1.0 0.00 0.00 0.00 84 1015.9
20260504171512 56 122 0.0 2.0 0.00 0.00 0.00 85 1015.8